Regional Weather Roundup
Issued by NWS

Home | Current Version | Previous Version | Graphics & Text | Print | Product List | Glossary On
Versions: 1 2 3 4 5 6 7 8 9 10 11 12 13 14 15 16 17 18 19 20 21 22 23 24 25 26 27 28 29 30 31 32 33 34 35 36 37 38 39 40 41 42 43 44 45 46 47 48 49 50
000
ASUS43 KBIS 310502
RWRND

NORTH DAKOTA REGIONAL WEATHER ROUNDUP
NATIONAL WEATHER SERVICE BISMARCK ND
1200 AM CDT WED AUG 31 2016

NOTE: "FAIR" INDICATES FEW OR NO CLOUDS BELOW 12,000 FEET WITH NO
SIGNIFICANT WEATHER AND/OR OBSTRUCTIONS TO VISIBILITY.


NDZ001>003-009>011-017-310600-
NORTHWEST NORTH DAKOTA

CITY           SKY/WX    TMP DP  RH WIND       PRES   REMARKS
WILLISTON      CLOUDY    73  46  38 E7        30.14S
MINOT          PTCLDY    61  51  70 E8        30.20R
MINOT AFB      CLEAR     59  52  76 SE8       30.19R
$$

NDZ018>021-031>035-040>046-310600-
SOUTHWEST NORTH DAKOTA

CITY           SKY/WX    TMP DP  RH WIND       PRES   REMARKS
BISMARCK       CLEAR     65  54  67 NE8       30.19R
DICKINSON      CLOUDY    64  55  72 SE12      30.13S
GARRISON         N/A     64  55  72 E6        30.19R
HETTINGER ARPT CLEAR     70  59  68 SE8       30.17S
$$

NDZ004>008-012>016-024-026-027-054-310600-
NORTHEAST NORTH DAKOTA

CITY           SKY/WX    TMP DP  RH WIND       PRES   REMARKS
GRAND FORKS    CLEAR     58  52  80 CALM      30.21S
GRND FRKS AFB  CLEAR     57  55  92 N3        30.22S
DEVILS LAKE    CLEAR     64  55  72 E8        30.24R
$$

NDZ022-023-025-028>030-036>039-047>053-310600-
SOUTHEAST NORTH DAKOTA

CITY           SKY/WX    TMP DP  RH WIND       PRES   REMARKS
FARGO          CLEAR     58  55  90 NE3       30.20S
JAMESTOWN      CLEAR     59  56  89 E7        30.22R
$$




USA.gov is the U.S. government's official web portal to all federal, state and local government web resources and services.